[[{"header":{"parameterUnit":"m.s-1","parameterCategory":1,"la1":30.2991,"la2":30.254,"lo1":-89.0895,"lo2":-89.0444,"dy":0.0017,"dx":0.0017,"nx":28,"ny":28,"refTime":"2024-08-02T21:00:00:Z","depth":0,"parameterNumber":2,"parameterNumberName":"U-component_of_WINDS"},"data":[0,0,0,0,0,0,0,0,0,0,0,0,0,0,0,0,0,0,0,0,0,0,0,0,0,0,0,0,0,0,0,0,0,0,0,0,0,0,0,0,0,0,0,0,0,0,0,0,0,0,0,0,0,0,0,0,0,0,0.3399,0.3396,0,0.3157,0.3154,0.3152,0.293,0.2928,0.2925,0.2922,0.2673,0.2669,0.2665,0,0,0,0,0,0,0,0,0,0,0,0,0,0.3665,0.3662,0.3399,0.3396,0.3393,0.3158,0.3154,0.3151,0.2931,0.2927,0.2924,0.2921,0.2675,0.267,0.2665,0,0,0,0,0,0,0,0,0,0,0,0,0,0.3499,0.366,0.34,0.3255,0.3239,0.3158,0.3154,0.315,0.2931,0.2927,0.2923,0.292,0.2676,0.267,0.2664,0.2706,0,0,0.2645,0.2643,0,0,0,0,0,0,0,0,0.3509,0.349,0.3279,0.3265,0.3247,0.307,0.3156,0.3001,0.2932,0.3048,0.2922,0.2918,0.2808,0.2791,0.2755,0.2695,0.2684,0.2645,0.2641,0.2638,0.2637,0,0,0,0,0,0,0,0.3521,0.3499,0.3303,0.3276,0.3257,0.32,0.3172,0.3126,0.2954,0.3038,0.3021,0.2996,0.2799,0.2761,0.2747,0.268,0.2645,0.2639,0.2636,0.2633,0.264,0.2643,0,0,0,0,0,0,0.3555,0.351,0.3311,0.3296,0.3371,0.3199,0.3167,0.3131,0.2954,0.2923,0.2999,0.2986,0.2774,0.2755,0.2738,0.2774,0.2638,0.2633,0.2629,0.2636,0.2641,0.2645,0,0,0,0,0,0,0.3562,0.3539,0.332,0.3398,0.3366,0.3198,0.3159,0.3128,0.309,0.2925,0.2892,0.2993,0.277,0.2746,0.2715,0.2762,0.263,0.2624,0.2631,0.2637,0.2643,0.2849,0,0,0,0,0,0,0.357,0.3543,0.3559,0.34,0.3363,0.3305,0.3162,0.3126,0.308,0.3061,0.291,0.2881,0.2765,0.2726,0.2709,0.2751,0.2619,0.2626,0.2634,0.2641,0.2837,0.2861,0.2881,0,0,0,0,0,0.3581,0.3627,0.3561,0.3538,0.3379,0.3308,0.3286,0.3152,0.3085,0.3098,0.2991,0.2886,0.2759,0.2724,0.2704,0.2745,0.2623,0.2632,0.264,0.2827,0.2856,0.2881,0,0,0,0,0,0,0.3795,0.3603,0.3528,0.3525,0.3434,0.3271,0.3284,0.3187,0.3113,0.3098,0.2934,0.2902,0.2889,0.2813,0.2778,0.2775,0.2676,0.2682,0.2826,0.2852,0.2874,0.2893,0.2614,0,0,0,0,0,0.3842,0.3801,0.3635,0.3648,0.3606,0.3453,0.3417,0.3321,0.322,0.3181,0.3072,0.2978,0.2916,0.2879,0.2813,0.2824,0.2787,0.2841,0.2864,0.2883,0.289,0.2887,0.291,0.2673,0.2673,0.2673,0,0,0.3938,0.3828,0.3813,0.3688,0.3607,0.3567,0.3423,0.3387,0.3355,0.3175,0.3139,0.3056,0.2939,0.2929,0.2919,0.2865,0.2946,0.2894,0.291,0.2906,0.2899,0.2921,0.2941,0.2679,0.2678,0.2677,0,0,0.4094,0.4007,0.4008,0.3929,0.3807,0.3704,0.3705,0.3554,0.3492,0.3453,0.3317,0.3276,0.3174,0.3096,0.3043,0.3166,0.3066,0.3149,0.3266,0.3266,0.3284,0.33,0.3343,0.3361,0.3156,0.3157,0.3157,0,0.4229,0.4165,0.402,0.3992,0.394,0.3775,0.3773,0.3703,0.3566,0.3534,0.3475,0.3342,0.3252,0.3221,0.3251,0.3213,0.3207,0.3167,0.3293,0.3308,0.332,0.336,0.3377,0.3167,0.3166,0.3165,0.3164,0,0.4337,0.4294,0.4308,0.4181,0.413,0.4116,0.3967,0.3933,0.384,0.3744,0.3705,0.359,0.3498,0.3483,0.3393,0.3438,0.3408,0.3324,0.3222,0.3356,0.339,0.3404,0.3183,0.3179,0.3176,0.3173,0,0,0.4624,0.4414,0.4422,0.4361,0.4213,0.4177,0.4153,0.4063,0.4036,0.3946,0.3922,0.3838,0.3758,0.3698,0.3597,0.3597,0.3701,0.3511,0.3506,0.3551,0.3742,0.3808,0.3828,0.3632,0.3634,0.3636,0.3752,0,0.4755,0.4705,0.4573,0.4563,0.452,0.4361,0.434,0.4246,0.4154,0.4103,0.4,0.3944,0.3843,0.3806,0.3798,0.369,0.3737,0.3679,0.3607,0.3607,0.3644,0.3846,0.3915,0.403,0.3764,0.3767,0.3768,0,0.4903,0.4823,0.481,0.4662,0.4639,0.4624,0.4529,0.4482,0.4371,0.4304,0.4237,0.4124,0.4088,0.3993,0.3941,0.3905,0.3867,0.3809,0.381,0.3799,0.3697,0.3841,0.4063,0.4082,0.3788,0.3786,0.3785,0,0.5114,0.5003,0.498,0.4933,0.476,0.4752,0.468,0.4564,0.4518,0.4434,0.4402,0.4316,0.4269,0.4203,0.407,0.4013,0.4032,0.3926,0.3975,0.3979,0.3988,0.399,0.4209,0.3963,0.3962,0.3962,0.3962,0,0.5275,0.5273,0.5072,0.5059,0.5051,0.4897,0.4893,0.4804,0.4703,0.4668,0.4524,0.4494,0.4318,0.4267,0.4161,0.4134,0.4114,0.4058,0.403,0.4071,0.4079,0.4046,0.4035,0.3966,0.3965,0.3964,0.3964,0,0.5511,0.5376,0.5341,0.5179,0.5138,0.514,0.5,0.498,0.4878,0.4835,0.4816,0.4656,0.4588,0.4448,0.4341,0.427,0.4268,0.4218,0.4306,0.4289,0.4346,0.4343,0.4552,0.4572,0.4314,0.4317,0.4319,0,0.5624,0.5618,0.5456,0.5423,0.5356,0.5304,0.5255,0.5102,0.5057,0.4929,0.4924,0.4844,0.4773,0.4672,0.4545,0.4462,0.441,0.4488,0.4396,0.4438,0.4411,0.4414,0.4412,0.451,0.4514,0.4517,0.4519,0,0.5838,0.5771,0.5708,0.562,0.5567,0.549,0.5406,0.5386,0.5212,0.5169,0.5098,0.5043,0.4933,0.4856,0.4754,0.4676,0.4569,0.4548,0.4555,0.4599,0.465,0.4623,0.4364,0.4545,0.4542,0.454,0.4539,0.4538,0.6015,0.6003,0.5887,0.582,0.574,0.5664,0.5636,0.5531,0.5469,0.5369,0.5281,0.5218,0.5103,0.4955,0.4885,0.4832,0.4779,0.479,0.4792,0.4797,0.4815,0.4658,0.4812,0.4811,0.4811,0.481,0.4809,0,0.6222,0.6139,0.6079,0.5966,0.5913,0.5816,0.5716,0.5678,0.5625,0.5528,0.546,0.5378,0.5301,0.5168,0.508,0.5063,0.5011,0.5045,0.5046,0.5029,0.4867,0.487,0.5088,0.5088,0.5088,0.5088,0.5088,0.5088,0.6324,0.6298,0.6217,0.6148,0.6063,0.6001,0.5953,0.5881,0.5803,0.5718,0.5654,0.5567,0.5454,0.5357,0.5282,0.5244,0.5218,0.5268,0.5216,0.5067,0.5041,0.5016,0.5018,0.5264,0.5264,0.5382,0.5383,0.5384]},{"header":{"parameterUnit":"m.s-1","parameterCategory":1,"la1":30.2991,"la2":30.254,"lo1":-89.0895,"lo2":-89.0444,"dy":0.0017,"dx":0.0017,"nx":28,"ny":28,"refTime":"2024-08-02T21:00:00:Z","depth":0,"parameterNumber":3,"parameterNumberName":"V-component_of_WINDS"},"data":[0,0,0,0,0,0,0,0,0,0,0,0,0,0,0,0,0,0,0,0,0,0,0,0,0,0,0,0,0,0,0,0,0,0,0,0,0,0,0,0,0,0,0,0,0,0,0,0,0,0,0,0,0,0,0,0,0,0,4.7169,4.7172,0,4.7482,4.7485,4.7489,4.7614,4.7614,4.7613,4.7612,4.7924,4.7933,4.7942,0,0,0,0,0,0,0,0,0,0,0,0,0,4.6673,4.6681,4.7168,4.7172,4.7176,4.7481,4.7485,4.749,4.7614,4.7613,4.7613,4.7612,4.7922,4.7932,4.7943,0,0,0,0,0,0,0,0,0,0,0,0,0,4.6927,4.6684,4.7168,4.7276,4.7288,4.748,4.7485,4.7491,4.7615,4.7613,4.7612,4.7611,4.7918,4.7931,4.7944,4.805,0,0,4.7986,4.7992,0,0,0,0,0,0,0,0,4.6912,4.6945,4.7256,4.7268,4.7283,4.7508,4.7425,4.7678,4.7615,4.749,4.7612,4.7611,4.7786,4.781,4.7871,4.8064,4.8078,4.7987,4.7995,4.8001,4.8005,0,0,0,0,0,0,0,4.6894,4.6932,4.7292,4.726,4.7277,4.7306,4.7341,4.7474,4.764,4.7501,4.7511,4.7547,4.7793,4.7858,4.788,4.8082,4.7987,4.7999,4.8007,4.8012,4.8378,4.838,0,0,0,0,0,0,4.686,4.6916,4.7282,4.7302,4.7091,4.7316,4.7355,4.7437,4.7639,4.7669,4.7547,4.7552,4.7836,4.7864,4.7891,4.8029,4.8001,4.8013,4.8021,4.8377,4.8379,4.838,0,0,0,0,0,0,4.6849,4.6891,4.727,4.7112,4.7162,4.7326,4.7416,4.7443,4.7508,4.7675,4.7704,4.7583,4.7836,4.7872,4.801,4.8041,4.802,4.8032,4.8375,4.8377,4.838,4.8303,0,0,0,0,0,0,4.6834,4.6887,4.693,4.7112,4.717,4.7385,4.7418,4.745,4.7532,4.7541,4.7716,4.7744,4.7838,4.7989,4.8024,4.8059,4.8042,4.8373,4.8376,4.8379,4.8303,4.8303,4.8302,0,0,0,0,0,4.6816,4.6894,4.6931,4.6975,4.7228,4.7387,4.742,4.7529,4.7534,4.7578,4.7685,4.7738,4.8032,4.8002,4.8042,4.8082,4.8371,4.8375,4.8379,4.8304,4.8303,4.8302,0,0,0,0,0,0,4.6708,4.692,4.6964,4.7104,4.7227,4.7408,4.7466,4.7524,4.7646,4.7648,4.7775,4.7814,4.7941,4.8026,4.7989,4.8195,4.8206,4.8217,4.8135,4.8136,4.8135,4.8111,4.8054,0,0,0,0,0,4.6701,4.6815,4.6993,4.7099,4.7158,4.7301,4.7374,4.7448,4.7579,4.7631,4.7748,4.7872,4.7992,4.8069,4.8189,4.8317,4.8356,4.8364,4.8363,4.8361,4.8369,4.8444,4.8449,4.8392,4.8392,4.8392,0,0,4.6687,4.6817,4.688,4.708,4.7184,4.7297,4.7344,4.7461,4.7546,4.7648,4.7787,4.7877,4.8023,4.8157,4.8221,4.8231,4.8394,4.8366,4.8363,4.8373,4.8448,4.8453,4.8458,4.8395,4.8394,4.8394,0,0,4.6719,4.6829,4.693,4.7034,4.7191,4.7286,4.731,4.7484,4.7548,4.769,4.7769,4.787,4.8075,4.8176,4.8254,4.8326,4.8379,4.8361,4.8356,4.8427,4.8431,4.8435,4.8461,4.8468,4.8369,4.8369,4.8368,0,4.6681,4.6856,4.6973,4.7087,4.7172,4.7274,4.7376,4.747,4.7657,4.7713,4.7722,4.7982,4.8087,4.8246,4.8264,4.8324,4.8354,4.8341,4.8421,4.8427,4.8433,4.8458,4.8468,4.8365,4.8366,4.8366,4.8366,0,4.6801,4.6921,4.6983,4.7165,4.7257,4.7364,4.7496,4.7575,4.764,4.7733,4.7876,4.8006,4.8155,4.8198,4.8262,4.8366,4.8368,4.8397,4.841,4.8433,4.8459,4.847,4.8361,4.8362,4.8363,4.8364,0,0,4.6773,4.702,4.704,4.7124,4.7306,4.74,4.7511,4.7659,4.7724,4.785,4.7945,4.8117,4.8147,4.8235,4.8311,4.8373,4.8422,4.8396,4.8401,4.8396,4.8544,4.8521,4.853,4.8459,4.8461,4.8463,4.8532,0,4.6829,4.7035,4.7144,4.7303,4.7414,4.7513,4.7609,4.773,4.782,4.7927,4.8026,4.8146,4.8175,4.8229,4.8295,4.8401,4.8453,4.8398,4.8547,4.8551,4.8507,4.8544,4.8519,4.8578,4.8543,4.8545,4.8546,0,4.6922,4.7049,4.7219,4.7389,4.744,4.7525,4.767,4.7771,4.791,4.7971,4.8071,4.8147,4.8266,4.8271,4.8436,4.8396,4.8464,4.8525,4.853,4.8547,4.8549,4.8562,4.86,4.8608,4.8563,4.8562,4.8561,0,4.6884,4.7098,4.7228,4.7296,4.7498,4.7555,4.7641,4.7779,4.7861,4.7987,4.8042,4.8178,4.8253,4.8356,4.8466,4.846,4.8621,4.8634,4.8674,4.8671,4.8702,4.8699,4.8751,4.8746,4.8746,4.8746,4.8745,0,4.6935,4.7035,4.7214,4.7293,4.7408,4.7532,4.7641,4.7735,4.7857,4.7955,4.8048,4.8137,4.8278,4.8385,4.8472,4.8595,4.8628,4.868,4.8701,4.8672,4.8665,4.8717,4.8715,4.8748,4.8748,4.8747,4.8747,0,4.6912,4.7036,4.7184,4.7363,4.741,4.7487,4.7639,4.7719,4.7815,4.7938,4.7974,4.8123,4.8254,4.8375,4.8548,4.8606,4.8731,4.8759,4.8685,4.8697,4.8729,4.8724,4.8816,4.8834,4.8816,4.8816,4.8816,0,4.6936,4.7016,4.7204,4.7278,4.7363,4.748,4.7565,4.7689,4.7774,4.7938,4.7998,4.8137,4.8254,4.8458,4.858,4.8714,4.8745,4.8769,4.8766,4.8733,4.8745,4.8739,4.8748,4.8766,4.8766,4.8765,4.8765,0,4.6966,4.7023,4.7143,4.7285,4.7384,4.7501,4.7621,4.7675,4.7822,4.7912,4.8048,4.8139,4.8318,4.8453,4.8601,4.8688,4.8751,4.8765,4.8782,4.8751,4.8705,4.873,4.868,4.8762,4.8763,4.8763,4.8763,4.8763,4.6967,4.7043,4.7187,4.7318,4.7421,4.7531,4.7616,4.7723,4.7839,4.7996,4.8062,4.82,4.8337,4.8542,4.8628,4.8737,4.875,4.8773,4.8779,4.8783,4.8777,4.8688,4.8764,4.8765,4.8765,4.8765,4.8765,0,4.7001,4.7099,4.7218,4.7384,4.7486,4.7539,4.7674,4.7756,4.7877,4.8001,4.8115,4.8271,4.8404,4.8537,4.8677,4.8738,4.877,4.877,4.8767,4.8786,4.8757,4.873,4.8742,4.8742,4.8742,4.8742,4.8742,4.8742,4.7031,4.7162,4.7236,4.7419,4.7516,4.7654,4.7726,4.7828,4.7928,4.8099,4.821,4.8297,4.8425,4.8575,4.8698,4.8734,4.8781,4.8773,4.8816,4.8787,4.8788,4.8788,4.8763,4.8782,4.8782,4.8836,4.8837,4.8837]}]]